Preview of NWS' New Version of Forecast
This preview is not operational and should not be used for support decisions.

Regional Weather Roundup (RWR)

Issued by National Weather Service (NWS)

                            
000
ASUS46 KSEW 190710
RWRWA 

WASHINGTON REGIONAL WEATHER ROUNDUP
NATIONAL WEATHER SERVICE SEATTLE WA
1200 AM PDT MON AUG 19 2019

NOTE:"FAIR" INDICATES FEW OR NO CLOUDS BELOW 12,000 FEET WITH NO 
SIGNIFICANT WEATHER AND/OR OBSTRUCTIONS TO VISIBILITY.

WAZ507-509-555>559-190800-
SEATTLE, TACOMA, EVERETT, AND VICINITY
  
CITY           SKY/WX    TMP DP  RH WIND       PRES   REMARKS
EVERETT        CLEAR     59  54  83 N5        29.91S                  
BOEING FIELD   CLOUDY    66  52  60 N3        29.89R                  
RENTON         CLOUDY    66  55  67 VRB3      29.89R                  
SEATAC AIRPORT CLOUDY    65  54  67 CALM      29.90R                  
JBLM-MCCHORD   CLEAR     62  59  91 CALM      29.91R                  
PUYALLUP       CLOUDY    63  57  82 CALM      29.91R                  
BREMERTON      CLEAR     56  52  86 CALM      29.91R                  
JBLM-FT LEWIS  CLEAR     58  58  99 SE6       29.90R                  
TACOMA NARROWS CLOUDY    60  55  83 SW5       29.91R                  
$$
 
WAZ001-503-506-510-514-515-190800-
NORTH INTERIOR
  
CITY           SKY/WX    TMP DP  RH WIND       PRES   REMARKS
BELLINGHAM     CLEAR     60  52  74 S5        29.86S                  
FRIDAY HARBOR  CLEAR     55  50  83 CALM      29.88R                  
EASTSOUND      CLEAR     59  54  82 S7        29.86R                  
PORT ANGELES   CLEAR     55  52  89 W8        29.90S                  
EDIZ HOOK      FAIR      55  53  91 W8        29.90S                  
PORT TOWNSEND  CLOUDY    61  55  82 CALM      29.88S                  
NAS WHIDBEY    PTCLDY    59  53  80 SW14      29.92S                  
ARLINGTON      CLEAR     57  52  83 CALM      29.90S                  
BURLINGTON     CLEAR     55  52  88 CALM      29.89S                  
$$
 
WAZ020-022-039-040-504-511-512-190800-
SOUTHWEST INTERIOR
  
CITY           SKY/WX    TMP DP  RH WIND       PRES   REMARKS
SHELTON        CLEAR     58  53  84 W6        29.89R                  
OLYMPIA        CLEAR     57  53  86 S3        29.90R                  
CHEHALIS       FAIR      57  57 100 CALM      29.92S                  
KELSO          CLEAR     60  56  86 N5        29.92R                  
VANCOUVER      CLEAR     63  54  72 NW5       29.89R                  
SCAPPOOSE, OR  CLEAR     62  54  74 N5        29.89R                  
PORTLAND, OR   CLEAR     65  55  70 NW3       29.89S                  
$$
 
WAZ021-516-517-190800-
WASHINGTON COAST
  
CITY           SKY/WX    TMP DP  RH WIND       PRES   REMARKS
FORKS          CLOUDY    60  55  83 CALM      29.91S                  
HOQUIAM        CLEAR     59  58  96 NW3       29.92R                  
ASTORIA, OR    CLEAR     56  54  93 S3        29.93R                  
$$
 
WAZ019-023-024-040-567>569-190800-
CASCADE MOUNTAINS AND COLUMBIA GORGE
  
CITY           SKY/WX    TMP DP  RH WIND       PRES   REMARKS
STAMPEDE PASS  FOG       53  51  93 MISG      29.95S VSB 1/4          
TROUTDALE, OR  CLEAR     64  55  72 VRB3      29.89R                  
HOOD RIVER, OR SUNNY     64  54  68 NW9       29.84R                  
THE DALLES, OR CLEAR     72  50  45 NW20      29.78R                  
$$

WAZ026-027-041>044-520-521-190800-
EAST SLOPES
  
CITY           SKY/WX    TMP DP  RH WIND       PRES   REMARKS
OMAK           CLEAR     71  44  37 SW6       29.72R                  
WENATCHEE      CLEAR     73  46  38 W14       29.75R                  
ELLENSBURG     CLEAR     66  52  60 NW14      29.80S                  
YAKIMA         CLEAR     73  52  47 NW15      29.77S                  
SUNNYSIDE ARPT SUNNY     60  55  86 CALM      29.73                   
YAKIMA TC      FAIR      67  45  44 E12       29.77R                  
$$

WAZ028-034-035-190800-
COLUMBIA BASIN
  
CITY           SKY/WX    TMP DP  RH WIND       PRES   REMARKS
EPHRATA        CLEAR     72  47  40 N3        29.73R                  
MOSES LAKE     CLEAR     66  53  63 N3        29.73R                  
PASCO          CLEAR     76  51  41 S10       29.72R                  
RICHLAND ARPT  SUNNY     71  53  52 W5        29.72                   
HERMISTON, OR  CLEAR     76  48  37 SW15G22   29.74S                  
$$

WAZ036>038-190800-
NORTHEAST WASHINGTON
  
CITY           SKY/WX    TMP DP  RH WIND       PRES   REMARKS
SPOKANE GEIGER CLEAR     69  40  34 SW6       29.79R                  
SPOKANE FELTS  CLEAR     61  43  51 NE5       29.78R                  
FAIRCHILD AFB  CLEAR     65  41  42 S5        29.79S                  
COEURDALENE,ID CLEAR     62  49  62 SE5       29.80R                  
DEER PARK      CLEAR     54  45  71 CALM      29.78R                  
$$

WAZ029>033-190800-
SOUTHEAST WASHINGTON
  
CITY           SKY/WX    TMP DP  RH WIND       PRES   REMARKS
PULLMAN        CLEAR     55  37  50 CALM      29.84R                  
LEWISTON, ID   CLEAR     74  36  25 CALM      29.77R                  
WALLA WALLA    CLEAR     73  43  33 S9        29.78R                  
PENDLETON, OR  CLEAR     65  42  43 E5        29.79R                  
$$